• Join FlightAware (Why Join?)
  • Login
  • US Flag 
09:29AM EST


 

Airport Tracker/Info


-or-


 

Live Flight TrackerFlight Track Log ✈ N431EH ✈ 05-May-2014 ✈ KDAL - KSLC

Flight Track Log - Related Links

Times and Time Zones

All times are in EDT time to prevent confusion due to time zone crossing. See the N431EH flight status page for this flight to view local times or setup timezone preferences in your user account.

Time Position Orientation Groundspeed Altitude Reporting Facility
EDT Latitude Longitude Course Direction KTS MPH feet Rate Location/Type
03:30PM 32.7179 -96.7601 192° South 277 319 7,000  Level FlightAware ADS-B
03:30PM 32.6841 -96.7684 192° South 273 314 8,300 4,560 Climbing FlightAware ADS-B
03:31PM 32.6804 -96.7696 214° Southwest 275 316 9,300 2,700 Climbing FlightAware ADS-B
03:31PM 32.6358 -96.8361 242° Southwest 296 341 11,000 2,280 Climbing FlightAware ADS-B
03:32PM 32.6251 -96.8852 293° West 299 344 13,000 3,240 Climbing FlightAware ADS-B
03:33PM 32.6586 -96.9545 304° West 314 361 15,300 3,780 Climbing FlightAware ADS-B
03:34PM 32.7057 -97.0376 304° West 314 361 19,300 3,600 Climbing FlightAware ADS-B
03:34PM 32.7344 -97.0889 304° West 331 381 21,400 2,820 Climbing FlightAware ADS-B
03:35PM 32.7420 -97.1025 304° West 357 411 24,000 2,520 Climbing FlightAware ADS-B
03:36PM 32.8184 -97.2391 303° West 359 413 25,400 2,640 Climbing FlightAware ADS-B (KAFW)
03:37PM 32.8482 -97.2928 303° West 363 418 27,000 2,940 Climbing FlightAware ADS-B (KAFW)
03:37PM 32.8872 -97.3629 303° West 363 418 29,000 2,760 Climbing FlightAware ADS-B (KAFW)
03:38PM 32.9211 -97.4241 303° West 368 423 30,600 2,700 Climbing FlightAware ADS-B (KAFW)
03:38PM 32.9612 -97.4967 303° West 373 429 32,300 2,340 Climbing FlightAware ADS-B
03:39PM 32.9995 -97.5662 304° West 376 433 33,600 1,800 Climbing FlightAware ADS-B (KHOU)
03:40PM 33.0011 -97.5690 303° West 398 458 35,700 1,560 Climbing FlightAware ADS-B
03:41PM 33.1190 -97.8230 291° West 404 465 37,200 1,560 Climbing FlightAware ADS-B (KHOU)
03:43PM 33.1746 -97.9963 291° West 397 457 39,500 1,320 Climbing FlightAware ADS-B
03:43PM 33.1762 -98.0016 290° West 405 466 40,000 180 Climbing FlightAware ADS-B
03:45PM 33.2451 -98.2221 299° West 421 484 40,000  Level FlightAware ADS-B
03:47PM 33.4151 -98.5396 305° West 421 484 40,000  Level FlightAware ADS-B
03:48PM 33.4733 -98.6383 305° West 412 474 40,000  Level Fort Worth Center
03:49PM 33.5414 -98.7533 305° West 416 479 40,000  Level Fort Worth Center
03:50PM 33.6117 -98.8678 306° West 424 488 40,000  Level Fort Worth Center
03:51PM 33.6914 -99.0047 305° West 421 484 40,000  Level Fort Worth Center
03:52PM 33.7594 -99.1194 306° West 421 484 40,000  Level Fort Worth Center
03:54PM 33.8281 -99.2356 305° West 427 491 40,000  Level Fort Worth Center
03:55PM 33.8953 -99.3506 305° West 418 481 40,000  Level Fort Worth Center
03:56PM 33.9622 -99.4642 305° West 419 482 40,000  Level Fort Worth Center
03:57PM 34.0428 -99.6031 305° West 421 484 40,000  Level Fort Worth Center
03:58PM 34.1108 -99.7192 305° West 424 488 40,000  Level Fort Worth Center
03:59PM 34.1789 -99.8372 305° West 425 489 40,000  Level Fort Worth Center
04:00PM 34.2467 -99.9547 305° West 428 493 40,000  Level Fort Worth Center
04:01PM 34.3144 -100.0725 305° West 428 493 40,000  Level Fort Worth Center
04:02PM 34.3847 -100.1981 304° West 429 494 40,000  Level Fort Worth Center
04:03PM 34.4522 -100.3172 305° West 428 493 40,000  Level Fort Worth Center
04:04PM 34.5364 -100.4567 306° West 429 494 40,000  Level Fort Worth Center
04:05PM 34.6022 -100.5786 303° West 429 494 40,000  Level Fort Worth Center
04:06PM 34.6550 -100.6739 304° West 428 493 40,000  Level Albuquerque Center
04:07PM 34.7222 -100.7942 304° West 429 494 40,000  Level Albuquerque Center
04:08PM 34.7903 -100.9133 305° West 429 494 40,000  Level Albuquerque Center
04:09PM 34.8572 -101.0328 304° West 429 494 40,000  Level Albuquerque Center
04:10PM 34.9219 -101.1519 304° West 427 491 40,000  Level Albuquerque Center
04:11PM 34.9894 -101.2719 304° West 426 490 40,000  Level Albuquerque Center
04:12PM 35.0678 -101.4125 304° West 425 489 40,000  Level Albuquerque Center
04:13PM 35.1339 -101.5314 304° West 425 489 40,000  Level Albuquerque Center
04:14PM 35.2050 -101.6622 304° West 425 489 40,000  Level Albuquerque Center
04:15PM 35.2722 -101.7828 304° West 425 489 40,000  Level Albuquerque Center
04:16PM 35.3369 -101.9042 303° West 425 489 40,000  Level Albuquerque Center
04:17PM 35.4008 -102.0247 303° West 425 489 40,000  Level Albuquerque Center
04:18PM 35.4672 -102.1453 304° West 425 489 40,000  Level Albuquerque Center
04:19PM 35.5328 -102.2661 304° West 425 489 40,000  Level Albuquerque Center
04:20PM 35.5975 -102.3878 303° West 425 489 40,000  Level Albuquerque Center
04:21PM 35.6758 -102.5322 304° West 425 489 40,000  Level Albuquerque Center
04:22PM 35.7400 -102.6536 303° West 425 489 40,000  Level Albuquerque Center
04:23PM 35.8056 -102.7758 304° West 425 489 40,000  Level Albuquerque Center
04:24PM 35.8706 -102.8994 303° West 426 490 40,000  Level Albuquerque Center
04:25PM 35.9386 -103.0272 303° West 426 490 40,000  Level Albuquerque Center
04:26PM 36.0036 -103.1519 303° West 427 491 40,000  Level Albuquerque Center
04:27PM 36.0686 -103.2758 303° West 427 491 40,000  Level Albuquerque Center
04:28PM 36.1444 -103.4211 303° West 427 491 40,000  Level Albuquerque Center
04:29PM 36.2092 -103.5450 303° West 427 491 40,000  Level Albuquerque Center
04:30PM 36.2733 -103.6700 303° West 427 491 40,000  Level Albuquerque Center
04:31PM 36.3381 -103.7936 303° West 427 491 40,000  Level Albuquerque Center
04:32PM 36.4022 -103.9197 302° West 427 491 40,000  Level Albuquerque Center
04:34PM 36.4672 -104.0447 303° West 427 491 40,000  Level Albuquerque Center
04:35PM 36.5317 -104.1703 303° West 427 491 40,000  Level Albuquerque Center
04:36PM 36.6061 -104.3189 302° West 428 493 40,000  Level Albuquerque Center
04:37PM 36.6711 -104.4461 303° West 429 494 40,000  Level Albuquerque Center
04:42PM 36.9996 -105.1024 302° West 440 506 40,000  Level FlightAware ADS-B (ZWAK / AKU)
04:43PM 37.0905 -105.2864 302° West 439 505 40,000  Level FlightAware ADS-B (ZWAK / AKU)
04:44PM 37.1329 -105.3724 302° West 438 504 40,000  Level FlightAware ADS-B (KEIK)
04:44PM 37.1615 -105.4305 302° West 436 502 40,000  Level FlightAware ADS-B (KEIK)
04:45PM 37.1832 -105.4748 301° West 436 502 40,000  Level FlightAware ADS-B (KMTJ)
04:45PM 37.2190 -105.5479 302° West 435 501 40,000  Level FlightAware ADS-B (KMTJ)
04:45PM 37.2389 -105.5887 301° West 434 499 40,000  Level FlightAware ADS-B (KEIK)
04:46PM 37.2767 -105.6661 301° West 432 497 40,000  Level FlightAware ADS-B (KEIK)
04:47PM 37.3108 -105.7362 301° West 432 497 40,000  Level FlightAware ADS-B (KEIK)
04:47PM 37.3428 -105.8014 303° West 432 497 40,000  Level FlightAware ADS-B (KEIK)
04:47PM 37.3360 -105.7879 306° West 433 498 40,000  Level FlightAware ADS-B (KMTJ)
04:48PM 37.3883 -105.8796 307° West 432 497 40,000  Level FlightAware ADS-B
04:49PM 37.4503 -105.9835 307° West 435 501 40,000  Level FlightAware ADS-B
04:49PM 37.4751 -106.0251 307° West 434 499 40,000  Level FlightAware ADS-B
04:50PM 37.5028 -106.0716 307° West 434 499 40,000  Level FlightAware ADS-B (KMTJ)
04:50PM 37.5475 -106.1467 307° West 432 497 40,000  Level FlightAware ADS-B
04:51PM 37.6156 -106.2615 307° West 432 497 40,000  Level FlightAware ADS-B
04:51PM 37.6501 -106.3197 307° West 433 498 40,000  Level FlightAware ADS-B
04:52PM 37.6932 -106.3926 307° West 434 499 40,000  Level FlightAware ADS-B
04:52PM 37.7292 -106.4535 307° West 435 501 40,000  Level FlightAware ADS-B
04:53PM 37.7605 -106.5068 307° West 433 498 40,000  Level FlightAware ADS-B (KMTJ)
04:53PM 37.8007 -106.5752 306° West 431 496 40,000  Level FlightAware ADS-B (KMTJ)
04:54PM 37.8329 -106.6302 307° West 430 495 40,000  Level FlightAware ADS-B
04:55PM 37.8777 -106.7065 306° West 431 496 40,000  Level FlightAware ADS-B
04:55PM 37.9123 -106.7657 306° West 432 497 40,000  Level FlightAware ADS-B
04:56PM 37.9488 -106.8283 306° West 433 498 40,000  Level FlightAware ADS-B
04:56PM 37.9898 -106.8988 306° West 432 497 40,000  Level FlightAware ADS-B
04:57PM 38.0258 -106.9607 306° West 433 498 40,000  Level FlightAware ADS-B
04:57PM 38.0523 -107.0063 306° West 432 497 40,000  Level FlightAware ADS-B (KMTJ)
04:58PM 38.0931 -107.0769 306° West 432 497 40,000  Level FlightAware ADS-B (KMTJ)
04:58PM 38.1308 -107.1421 306° West 431 496 40,000  Level FlightAware ADS-B (KMTJ)
04:59PM 38.1738 -107.2167 306° West 431 496 40,000  Level FlightAware ADS-B
04:59PM 38.2143 -107.2870 306° West 432 497 40,000  Level FlightAware ADS-B
05:00PM 38.2449 -107.3403 306° West 433 498 40,000  Level FlightAware ADS-B
05:00PM 38.2844 -107.4093 306° West 433 498 40,000  Level FlightAware ADS-B (KMTJ)
05:01PM 38.3157 -107.4640 306° West 432 497 40,000  Level FlightAware ADS-B
05:01PM 38.3518 -107.5272 306° West 432 497 40,000  Level FlightAware ADS-B
05:02PM 38.3982 -107.6086 306° West 433 498 40,000  Level FlightAware ADS-B
05:03PM 38.4386 -107.6797 306° West 436 502 40,000  Level FlightAware ADS-B
05:03PM 38.4810 -107.7545 306° West 434 499 40,000  Level FlightAware ADS-B (ZWAK / AKU)
05:04PM 38.5298 -107.8408 306° West 432 497 40,000  Level FlightAware ADS-B (KMTJ)
05:05PM 38.5725 -107.9164 306° West 433 498 40,000  Level FlightAware ADS-B
05:06PM 38.6543 -108.0618 306° West 427 491 40,000  Level FlightAware ADS-B
05:06PM 38.6908 -108.1270 306° West 422 486 40,000  Level FlightAware ADS-B (KMTJ)
05:07PM 38.7278 -108.1931 306° West 423 487 40,000  Level FlightAware ADS-B (KMTJ)
05:07PM 38.7755 -108.2785 306° West 427 491 40,000  Level FlightAware ADS-B (KMTJ)
05:08PM 38.7911 -108.3065 305° West 432 497 40,000  Level FlightAware ADS-B
05:08PM 38.8462 -108.4056 305° West 435 501 40,000  Level FlightAware ADS-B (KMTJ)
05:09PM 38.8808 -108.4681 305° West 440 506 40,000  Level FlightAware ADS-B
05:10PM 38.9225 -108.5433 305° West 440 506 40,000  Level FlightAware ADS-B (ZWAK / AKU)
05:10PM 38.9622 -108.6153 305° West 441 507 40,000  Level FlightAware ADS-B
05:11PM 39.0082 -108.6986 305° West 441 507 40,000  Level FlightAware ADS-B
05:11PM 39.0268 -108.7324 304° West 440 506 40,000  Level FlightAware ADS-B
05:12PM 39.0735 -108.8278 298° West 438 504 40,000  Level FlightAware ADS-B
05:12PM 39.1137 -108.9260 298° West 439 505 40,000  Level FlightAware ADS-B
05:13PM 39.1402 -108.9915 298° West 437 503 40,000  Level FlightAware ADS-B
05:13PM 39.1692 -109.0633 297° West 437 503 40,000  Level FlightAware ADS-B
05:14PM 39.1979 -109.1345 297° West 434 499 40,000  Level FlightAware ADS-B
05:14PM 39.2288 -109.2114 297° West 437 503 40,000  Level FlightAware ADS-B
05:15PM 39.2569 -109.2815 297° West 437 503 40,000  Level FlightAware ADS-B
05:15PM 39.2848 -109.3513 297° West 437 503 40,000  Level FlightAware ADS-B
05:16PM 39.3158 -109.4290 297° West 436 502 40,000  Level FlightAware ADS-B (KMTJ)
05:17PM 39.3537 -109.5243 297° West 436 502 40,000  Level FlightAware ADS-B
05:17PM 39.3815 -109.5945 297° West 435 501 40,000  Level FlightAware ADS-B
05:18PM 39.4081 -109.6617 297° West 433 498 40,000  Level FlightAware ADS-B
05:19PM 39.4501 -109.7682 297° West 431 496 40,000 -240 Level FlightAware ADS-B
05:19PM 39.4835 -109.8531 297° West 435 501 39,700 -780 Descending FlightAware ADS-B
05:20PM 39.5101 -109.9210 297° West 438 504 39,200 -1,080 Descending FlightAware ADS-B
05:20PM 39.5435 -110.0062 297° West 439 505 38,600 -1,500 Descending FlightAware ADS-B
05:21PM 39.5727 -110.0812 297° West 440 506 37,600 -1,980 Descending FlightAware ADS-B
05:21PM 39.5592 -110.0464 297° West 437 503 36,300 -2,100 Descending FlightAware ADS-B (KMTJ)
05:22PM 39.6644 -110.3172 297° West 444 511 33,900 -2,160 Descending FlightAware ADS-B
05:23PM 39.7116 -110.4393 297° West 441 507 32,300 -2,100 Descending FlightAware ADS-B (ZWAK / AKU)
05:24PM 39.7504 -110.5402 296° West 416 479 30,700 -2,100 Descending FlightAware ADS-B
05:25PM 39.7787 -110.6143 296° West 403 464 29,500 -1,920 Descending FlightAware ADS-B
05:26PM 39.8310 -110.7513 296° West 391 450 27,700 -1,860 Descending FlightAware ADS-B
05:26PM 39.8727 -110.8610 296° West 382 440 26,000 -1,920 Descending FlightAware ADS-B (ZWAK / AKU)
05:27PM 39.9146 -110.9717 296° West 392 451 24,100 -1,860 Descending FlightAware ADS-B (ZWAK / AKU)
05:29PM 39.9686 -111.1144 296° West 350 403 22,300 -1,620 Descending FlightAware ADS-B (ZWAK / AKU)
05:30PM 40.0079 -111.2194 296° West 300 345 20,800 -1,380 Descending FlightAware ADS-B (ZWAK / AKU)
05:30PM 40.0380 -111.3001 296° West 319 367 19,800 -1,440 Descending FlightAware ADS-B
05:31PM 40.0793 -111.4105 296° West 322 371 18,200 -1,560 Descending FlightAware ADS-B
05:32PM 40.0988 -111.4626 296° West 316 364 17,400 -1,560 Descending FlightAware ADS-B
05:33PM 40.1262 -111.5366 296° West 314 361 16,300 -660 Descending FlightAware ADS-B
05:34PM 40.1687 -111.6514 296° West 312 359 16,200 -60 Descending FlightAware ADS-B (ZWAK / AKU)
05:34PM 40.1984 -111.7073 313° West 330 380 16,200 -540 Level FlightAware ADS-B
05:35PM 40.2440 -111.7686 314° West 318 366 15,500 -1,020 Descending FlightAware ADS-B
05:36PM 40.2684 -111.8016 314° West 311 358 15,000 -1,020 Descending FlightAware ADS-B
05:36PM 40.3254 -111.8617 333° Northwest 326 375 14,300 -1,020 Descending FlightAware ADS-B (KBTF)
05:37PM 40.3670 -111.8875 334° Northwest 308 354 13,800 -1,020 Descending FlightAware ADS-B (KBTF)
05:37PM 40.4189 -111.9175 342° North 287 330 13,100 -1,080 Descending FlightAware ADS-B (KBTF)
05:38PM 40.4354 -111.9222 354° North 287 330 12,800 -1,080 Descending FlightAware ADS-B
05:38PM 40.4800 -111.9286 353° North 277 319 12,300 -1,320 Descending FlightAware ADS-B (KBTF)
05:39PM 40.5175 -111.9337 355° North 280 322 11,400 -1,500 Descending FlightAware ADS-B
05:39PM 40.5594 -111.9380 356° North 271 312 10,700 -900 Descending FlightAware ADS-B
05:40PM 40.6051 -111.9429 355° North 226 260 10,400 -900 Descending FlightAware ADS-B (KBTF)
05:40PM 40.6251 -111.9454 354° North 215 247 9,900 -1,860 Descending FlightAware ADS-B (KBTF)
05:41PM 40.6417 -111.9475 355° North 210 242 9,300 -2,520 Descending FlightAware ADS-B
05:41PM 40.6606 -111.9498 355° North 200 230 8,400 -2,220 Descending FlightAware ADS-B
05:41PM 40.6806 -111.9521 355° North 161 185 7,700 -1,920 Descending FlightAware ADS-B (KBTF)
05:42PM 40.6956 -111.9539 354° North 147 169 7,000 -2,280 Descending FlightAware ADS-B (KBTF)
05:42PM 40.7094 -111.9560 352° North 150 173 6,200 -2,100 Descending FlightAware ADS-B (KBTF)
05:42PM 40.7289 -111.9586 355° North 131 151 5,300 -1,380 Descending FlightAware ADS-B (KBTF)
05:43PM 40.7411 -111.9598 355° North 129 148 5,100 -840 Descending FlightAware ADS-B (KBTF)
05:43PM 40.7607 -111.9621 357° North 131 151 4,600 -780 Descending FlightAware ADS-B (KBTF)
05:44PM 40.7699 -111.9621 North 113 130 4,500 -420 Descending FlightAware ADS-B (KBTF)
05:44PM 40.7774 -111.9621 360° North 101 116 4,400 -480 Descending FlightAware ADS-B (KBTF)